Temperature
17 16 15 15 15 14 14 14 14 14 14 14 15 15 15 16 16 16 16 17 17 17 17 17 17 17 17 17 17 18 18 18 18 18 18 18 18 18 18 18 18 18 18
16 16 15 14 14 14 14 14 13 14 14 14 14 14 14 15 15 16 16 16 16 16 17 17 17 17 17 17 17 17 17 17 17 17 17 17 18 18 18 18 18 18 18
16 15 15 14 14 13 13 13 13 13 13 13 14 14 14 14 15 15 15 16 16 16 16 16 17 17 17 17 17 17 17 17 17 17 17 17 17 18 18 18 18 18 18
16 15 14 14 13 13 13 13 13 13 13 13 13 13 13 14 14 14 15 15 15 16 16 16 16 16 16 16 17 17 17 17 17 17 17 17 17 17 17 18 18 18 18
15 15 14 14 13 13 13 13 13 13 13 13 13 13 13 13 14 14 14 15 15 15 15 16 16 16 16 16 16 16 16 16 16 16 16 16 16 17 17 17 17 17 17
15 14 14 13 13 13 13 12 12 12 12 12 13 13 13 13 13 14 14 14 15 15 15 15 15 15 16 16 16 16 16 16 16 16 16 16 16 16 16 16 17 17 17
15 14 14 13 13 13 13 12 12 12 12 12 12 12 13 13 13 13 13 14 14 14 15 15 15 15 15 15 15 16 16 16 16 16 16 16 16 16 16 16 16 16 16
15 14 14 13 13 13 13 12 12 12 12 12 12 12 12 12 13 13 13 13 14 14 14 14 14 15 15 15 15 15 15 15 15 15 15 16 16 16 16 16 16 16 16
15 15 14 14 13 13 13 12 12 12 12 12 12 12 12 12 12 13 13 13 13 13 14 14 14 14 14 15 15 15 15 15 15 15 15 15 15 15 15 15 15 15 15
15 15 14 14 13 13 13 13 12 12 12 12 12 12 12 12 12 12 13 13 13 13 13 14 14 14 14 14 14 15 15 15 15 15 15 15 15 15 15 15 15 15 15
16 15 14 14 13 13 13 13 12 12 12 12 12 12 12 12 12 12 12 12 13 13 13 13 13 14 14 14 14 14 14 14 14 14 15 15 15 15 15 15 15 15 15
16 15 15 14 14 13 13 13 13 12 12 12 12 12 12 12 12 12 12 12 12 12 13 13 13 13 13 14 14 14 14 14 14 14 14 14 14 14 14 14 14 14 14
16 16 15 14 14 14 13 13 12 12 12 12 11 11 11 11 11 12 12 12 12 12 12 12 13 13 13 13 14 14 14 14 14 14 14 14 14 14 14 14 14 14 14
16 16 15 15 14 14 13 13 12 12 12 11 11 11 11 11 11 11 12 12 12 12 12 12 12 12 13 13 13 14 14 14 14 14 14 14 14 14 14 14 14 14 14
17 16 15 15 15 14 13 13 13 12 12 11 11 11 11 11 11 11 11 11 11 11 12 12 12 12 13 13 13 13 13 13 13 13 13 13 13 13 13 14 14 14 14
17 16 16 15 15 15 14 13 13 12 12 11 11 11 11 11 11 11 11 11 11 11 11 12 12 12 12 12 13 13 13 13 13 13 13 13 13 13 13 13 13 13 14
16 16 16 15 15 15 14 14 13 13 12 11 11 11 11 11 11 11 11 11 11 11 11 11 11 12 12 12 12 12 12 12 12 12 13 13 13 13 13 13 13 13 13
16 16 15 15 15 15 14 14 13 13 12 11 11 11 11 11 11 11 11 11 11 11 11 11 11 11 12 12 12 12 12 12 12 12 12 12 12 12 13 13 13 13 13
16 16 15 15 15 14 14 14 14 13 12 11 11 11 11 11 11 11 11 10 11 11 11 11 11 11 11 11 11 12 12 12 12 12 12 12 12 12 12 13 13 13 13
16 16 15 15 15 14 14 14 14 13 12 11 11 11 11 11 11 11 10 10 10 10 11 11 11 11 11 11 12 12 12 11 12 12 12 12 12 12 12 12 13 12 12
16 16 15 15 15 14 14 14 13 13 12 11 11 11 11 11 11 11 11 10 10 10 10 11 11 11 11 11 11 12 12 11 11 11 12 12 12 12 12 12 12 12 12
16 16 15 15 15 14 14 14 13 13 12 11 11 11 11 11 11 11 11 11 10 10 10 10 10 10 11 11 11 11 11 11 11 11 11 11 12 12 12 12 12 12 12
16 16 16 15 15 14 14 14 13 13 12 12 12 11 11 11 11 11 11 11 11 10 10 10 10 10 11 11 11 11 11 11 11 11 11 11 11 11 11 11 11 11 11
16 16 16 16 15 15 14 14 13 13 13 12 12 12 11 11 11 11 11 11 11 11 10 10 10 10 11 11 11 11 11 11 11 10 10 11 11 11 11 11 11 11 11
17 16 16 16 16 15 14 14 14 13 13 13 13 12 12 11 11 11 11 11 11 11 11 11 11 11 11 11 11 11 11 11 10 10 10 10 10 10 10 10 11 11 11
17 16 16 16 16 15 15 14 14 14 13 13 13 13 12 12 11 11 11 11 11 11 11 11 11 11 11 11 11 11 11 10 10 10 10 10 10 10 10 10 10 10 10
Wind_Speed
12 11 11 11 11 11 11 10 10 9 8 7 6 5 5 5 5 4 5 6 7 7 5 5 5 5 5 5 5 4 3 2 2 1 1 1 2 3 4 3 3 5 9
11 11 11 11 11 11 11 11 11 9 8 7 6 5 5 5 5 4 4 5 5 5 5 6 6 6 5 6 6 4 3 3 2 2 1 1 3 2 3 3 3 3 5
12 11 11 11 11 12 12 12 11 11 9 9 6 6 5 4 4 5 4 4 4 3 3 4 5 6 6 6 6 6 6 4 3 3 4 3 4 2 2 4 4 4 3
10 10 10 11 11 11 11 11 12 11 10 9 7 7 6 5 6 5 4 4 3 3 3 4 5 6 5 6 6 6 5 6 5 3 2 3 3 3 2 3 3 4 3
10 10 10 10 11 11 10 10 11 11 11 10 9 7 6 6 5 5 5 4 3 2 2 2 3 4 4 6 6 6 6 6 5 4 3 3 2 3 3 3 2 1 1
9 9 9 8 9 9 9 10 10 10 10 10 9 8 8 8 8 7 5 4 3 3 3 2 2 2 3 5 5 6 7 6 6 5 4 4 3 4 3 4 3 2 2
7 8 9 8 9 9 10 10 10 10 10 11 10 9 9 8 7 7 6 5 3 3 3 3 2 2 3 4 4 5 6 6 6 6 5 5 5 3 3 4 3 2 1
6 7 8 8 8 9 9 10 10 10 10 10 10 9 9 6 5 6 5 5 4 4 4 3 2 2 2 3 4 4 5 5 5 6 5 4 4 3 3 3 3 2 2
7 7 7 7 8 8 8 9 9 9 10 10 10 9 9 7 7 7 6 5 4 4 5 4 3 1 1 2 3 3 4 4 5 5 5 4 4 4 3 3 4 4 3
6 6 6 7 7 6 7 7 8 8 9 9 9 9 8 8 8 7 8 7 6 6 5 4 4 3 2 0 1 2 2 3 3 4 4 4 4 4 3 3 3 4 4
5 4 4 5 5 6 6 6 7 8 8 9 8 9 9 8 8 8 8 8 7 7 6 5 5 4 3 1 1 1 2 2 2 2 3 4 4 4 4 4 4 4 4
4 4 4 4 5 5 6 6 7 7 7 8 8 8 9 9 9 9 9 8 8 7 7 6 5 5 4 3 2 1 2 2 2 2 3 3 3 4 3 4 4 4 4
4 4 4 4 4 5 6 6 7 7 6 7 8 9 9 10 9 9 9 9 9 9 9 8 7 7 6 5 4 2 1 2 2 3 3 3 3 3 3 3 3 3 3
4 5 4 4 3 4 5 6 6 6 7 7 8 9 9 9 9 9 9 10 9 9 9 9 9 8 7 8 7 5 4 3 3 3 3 3 3 3 3 3 3 3 3
5 5 4 4 3 4 5 5 5 6 7 7 8 8 9 9 8 9 9 9 9 10 9 9 10 9 8 9 9 7 6 6 6 6 5 5 6 5 4 3 3 3 3
4 5 5 5 5 4 4 4 5 5 6 7 7 7 8 8 8 8 9 9 9 9 9 9 10 10 10 12 13 9 6 6 6 6 5 6 7 8 8 8 7 5 4
3 4 5 5 5 5 5 5 5 6 7 7 7 7 8 8 8 9 8 8 8 8 9 9 9 9 11 14 13 12 6 6 6 6 5 5 7 7 5 7 9 9 8
3 4 4 4 4 4 4 4 5 6 7 6 7 7 7 8 8 8 8 7 7 7 7 7 8 8 12 16 14 10 6 6 6 6 7 6 7 7 6 6 8 8 8
4 3 2 2 3 4 4 4 5 6 6 6 6 6 6 7 7 8 8 7 6 6 6 6 8 8 11 16 15 10 5 5 7 8 8 8 8 10 9 7 8 8 7
4 2 1 2 3 3 3 3 6 7 6 5 5 5 5 5 6 7 6 5 5 5 5 6 7 8 9 15 16 12 5 6 6 7 8 12 10 10 8 6 6 7 5
4 1 1 1 2 3 3 4 6 6 5 5 4 4 4 4 5 5 5 5 5 5 5 6 6 7 9 12 15 14 6 5 6 6 6 7 11 12 10 8 6 5 4
5 2 1 0 1 2 2 3 4 4 4 3 3 3 4 4 5 4 5 5 5 5 6 6 6 6 7 9 11 13 11 9 7 5 4 5 9 10 9 7 7 7 6
6 4 3 2 2 2 1 2 3 3 2 2 1 1 2 2 3 4 5 5 5 5 5 5 5 5 6 8 13 12 11 10 6 4 5 5 7 6 6 8 8 6 5
6 5 5 4 3 3 2 2 2 2 2 2 2 2 2 3 4 4 4 5 5 5 5 5 5 5 6 7 7 6 5 6 6 4 4 5 6 5 5 5 5 5 5
6 5 5 4 3 4 4 4 3 2 3 3 3 3 3 2 2 3 2 3 4 3 3 4 4 4 4 5 7 6 5 5 4 3 2 3 3 4 4 4 5 5 5
8 7 6 5 4 4 4 5 4 3 4 1 1 2 3 3 2 2 2 3 2 3 4 4 3 3 3 4 6 8 8 8 8 4 3 4 4 4 4 4 4 4 4
Wind_Direction
5 17 11 7 1 358 355 349 347 344 340 331 321 313 306 304 296 284 280 274 263 253 229 224 218 221 216 206 196 193 198 208 184 214 297 271 223 213 197 211 199 188 170
0 10 10 7 2 360 356 348 346 343 339 327 319 303 297 295 288 283 280 278 265 253 242 230 219 213 214 211 198 190 182 207 197 176 176 276 296 287 214 199 218 214 170
6 7 7 4 3 2 356 349 348 348 343 336 331 325 316 312 306 299 289 280 279 262 245 240 230 219 209 212 204 194 184 197 213 195 166 173 212 244 270 213 208 213 197
8 6 7 3 1 1 356 352 352 351 348 345 343 337 331 320 311 313 308 306 295 281 260 246 229 222 213 206 205 198 194 189 209 213 196 189 157 168 248 265 222 203 190
7 7 9 4 359 359 358 357 354 355 353 351 350 347 340 327 320 319 315 314 312 297 289 268 242 225 215 205 200 198 197 197 203 199 189 202 215 206 193 239 268 285 224
10 7 8 7 358 359 1 358 360 355 353 353 356 356 346 340 337 333 327 322 315 312 317 301 271 241 229 212 201 197 195 197 198 199 200 189 186 199 196 214 222 220 244
17 10 8 6 359 0 2 358 1 358 357 356 359 357 352 344 340 337 336 334 331 328 321 313 281 256 239 215 198 194 193 195 195 196 203 201 201 191 191 199 199 195 222
16 15 11 4 358 0 2 1 2 3 1 359 358 356 355 348 341 344 349 354 347 334 330 327 301 268 237 211 193 195 196 198 201 200 195 190 186 188 189 181 170 180 211
15 16 11 6 3 3 5 5 5 6 4 2 360 2 2 359 357 358 359 358 353 348 353 353 346 323 254 203 187 190 192 190 197 200 193 182 178 184 190 184 177 176 190
16 17 13 7 6 5 5 5 9 9 4 4 5 7 3 4 4 7 6 3 359 358 359 6 11 10 13 135 154 161 174 172 182 186 184 181 179 181 184 185 187 187 180
15 16 16 10 7 10 9 6 14 13 8 7 5 5 4 10 14 13 6 5 4 5 8 13 13 14 18 30 90 119 136 153 156 158 173 183 176 176 183 183 189 189 177
18 28 21 16 9 10 11 15 18 17 13 8 8 7 8 15 17 15 9 9 9 9 12 15 20 29 34 36 51 89 128 141 151 144 137 159 167 173 175 178 184 181 182
19 35 24 22 10 14 20 20 21 18 18 16 13 12 16 15 14 14 14 13 13 16 18 20 26 29 27 26 21 40 87 135 147 137 139 140 141 154 162 165 158 164 166
23 36 25 25 18 29 30 22 18 20 27 28 21 17 18 16 16 15 17 17 16 21 23 24 29 30 32 31 23 26 45 69 81 99 104 110 125 126 127 133 134 140 141
24 31 31 23 27 45 39 30 24 30 36 38 29 18 18 19 18 17 20 21 20 24 24 28 30 30 35 30 25 24 45 55 57 57 65 75 88 87 89 106 108 117 122
29 24 26 20 21 43 51 42 39 40 45 45 33 19 21 19 16 20 22 21 22 24 29 31 32 35 33 25 27 28 43 54 59 62 63 70 76 79 80 86 92 97 104
45 33 21 20 14 29 44 45 46 49 49 44 39 27 25 21 16 18 22 23 26 27 31 31 31 37 30 27 25 26 45 55 56 56 56 63 66 68 81 86 79 66 64
72 51 20 8 3 25 38 47 66 63 57 43 38 36 28 21 16 16 18 22 26 30 32 31 29 35 29 26 25 26 49 57 59 55 55 61 57 50 63 84 80 69 52
90 70 354 343 17 23 19 26 59 66 59 47 43 38 30 22 19 16 14 18 23 28 32 32 34 36 28 24 27 33 52 58 63 63 58 57 54 41 60 87 94 87 76
113 107 294 6 30 19 5 25 59 63 54 45 48 41 32 28 25 15 11 14 22 26 35 41 43 41 35 29 30 33 48 56 60 64 59 50 47 43 56 79 94 94 95
137 170 282 35 23 360 3 43 62 66 60 47 45 35 25 37 39 16 7 14 20 28 39 48 51 50 41 32 32 34 37 46 58 57 50 41 42 45 53 68 76 85 93
160 179 261 11 57 12 7 68 80 86 92 80 64 50 38 28 32 17 11 16 17 29 35 40 45 48 45 37 30 37 43 46 60 60 51 43 42 45 51 60 58 60 70
168 174 217 234 186 135 36 70 107 107 123 131 126 105 88 75 35 15 21 21 21 28 31 33 36 42 41 31 27 35 46 47 55 59 60 52 44 45 56 58 54 55 71
172 178 212 230 192 152 150 127 123 170 208 190 169 136 82 70 61 34 28 38 27 22 21 24 28 33 42 26 10 8 32 45 47 44 53 53 50 57 53 48 52 62 74
171 180 209 227 206 172 173 158 167 230 242 218 180 144 126 107 85 87 51 55 71 66 35 17 19 27 30 12 6 10 11 12 14 357 44 60 59 59 56 53 51 55 62
171 183 207 224 219 188 181 164 167 232 263 271 92 117 143 147 162 156 133 66 93 116 89 66 56 68 60 17 15 11 6 3 3 23 53 57 58 62 63 62 59 57 56
Height
1555 1552 1550 1547 1544 1541 1538 1535 1531 1528 1525 1522 1520 1518 1517 1516 1515 1515 1515 1515 1515 1516 1517 1519 1520 1522 1525 1527 1530 1533 1536 1539 1542 1544 1546 1547 1549 1550 1552 1554 1555 1556 1557
1555 1553 1550 1547 1543 1540 1536 1533 1530 1526 1523 1520 1518 1516 1514 1513 1512 1511 1511 1511 1511 1511 1512 1514 1516 1518 1521 1523 1525 1528 1531 1534 1537 1540 1542 1544 1546 1547 1549 1550 1551 1553 1555
1555 1553 1550 1546 1543 1539 1535 1532 1528 1525 1521 1519 1516 1513 1511 1510 1509 1508 1508 1507 1507 1507 1508 1509 1511 1513 1515 1518 1520 1523 1526 1529 1533 1535 1538 1540 1541 1543 1545 1546 1547 1549 1551
1555 1553 1549 1546 1543 1539 1535 1531 1527 1523 1520 1517 1514 1512 1510 1508 1507 1506 1505 1504 1504 1504 1505 1506 1507 1508 1510 1513 1515 1517 1521 1524 1527 1530 1533 1536 1537 1539 1540 1542 1544 1545 1547
1555 1553 1550 1546 1543 1539 1535 1530 1526 1523 1519 1516 1513 1511 1508 1506 1504 1503 1502 1502 1501 1501 1501 1502 1503 1504 1506 1508 1510 1513 1516 1519 1522 1525 1527 1530 1533 1535 1537 1538 1539 1541 1543
1555 1552 1550 1546 1542 1539 1534 1530 1526 1522 1519 1516 1513 1510 1507 1505 1503 1502 1500 1499 1499 1499 1499 1499 1499 1500 1502 1503 1505 1508 1511 1514 1517 1520 1522 1525 1527 1530 1532 1534 1535 1537 1539
1554 1552 1549 1546 1542 1538 1534 1530 1526 1523 1519 1516 1513 1510 1507 1505 1503 1501 1499 1498 1497 1496 1496 1496 1496 1497 1498 1500 1501 1504 1506 1509 1512 1514 1517 1520 1522 1526 1528 1530 1532 1534 1535
1554 1552 1549 1546 1543 1539 1535 1531 1527 1523 1520 1516 1513 1510 1507 1504 1502 1501 1499 1498 1496 1495 1495 1494 1494 1495 1495 1496 1498 1500 1502 1505 1507 1509 1512 1515 1518 1521 1523 1525 1528 1530 1532
1554 1552 1549 1546 1543 1540 1536 1532 1528 1524 1521 1518 1514 1510 1507 1505 1503 1501 1499 1497 1496 1494 1493 1493 1492 1493 1493 1494 1495 1497 1500 1502 1504 1506 1508 1510 1513 1516 1519 1521 1524 1527 1528
1554 1552 1549 1547 1544 1540 1537 1533 1529 1526 1523 1519 1516 1512 1509 1506 1504 1502 1499 1498 1496 1494 1492 1492 1491 1491 1491 1492 1493 1495 1497 1499 1500 1502 1505 1507 1510 1512 1515 1517 1520 1522 1525
1554 1552 1549 1547 1544 1541 1538 1534 1531 1527 1524 1521 1517 1514 1511 1508 1505 1503 1501 1498 1496 1494 1493 1491 1490 1490 1491 1491 1492 1494 1495 1497 1498 1500 1502 1504 1507 1509 1511 1514 1516 1519 1521
1553 1551 1550 1547 1545 1542 1539 1535 1532 1529 1526 1522 1519 1516 1513 1510 1507 1505 1502 1500 1498 1496 1494 1492 1491 1491 1491 1491 1492 1493 1495 1496 1498 1499 1500 1502 1504 1506 1508 1511 1513 1516 1517
1553 1551 1550 1547 1545 1542 1540 1537 1534 1530 1527 1524 1521 1518 1515 1512 1510 1507 1505 1503 1500 1498 1496 1494 1492 1492 1492 1492 1492 1493 1494 1496 1497 1498 1499 1501 1503 1505 1506 1508 1511 1513 1515
1553 1551 1550 1548 1546 1543 1541 1538 1535 1532 1529 1526 1523 1520 1517 1515 1512 1509 1507 1505 1502 1500 1498 1496 1495 1494 1493 1493 1493 1494 1495 1496 1497 1498 1499 1501 1502 1504 1505 1507 1509 1511 1513
1552 1551 1550 1548 1546 1544 1542 1539 1537 1534 1531 1528 1525 1522 1520 1517 1515 1512 1510 1507 1505 1503 1501 1499 1497 1496 1495 1495 1495 1495 1496 1496 1497 1498 1499 1500 1501 1503 1505 1506 1508 1510 1511
1552 1551 1550 1548 1547 1545 1542 1540 1538 1536 1533 1530 1527 1525 1522 1520 1517 1515 1512 1510 1508 1506 1504 1502 1500 1498 1498 1497 1497 1497 1497 1498 1498 1499 1500 1500 1501 1503 1505 1506 1508 1510 1512
1552 1551 1550 1549 1547 1546 1543 1541 1539 1537 1534 1532 1529 1527 1524 1522 1520 1517 1515 1513 1511 1509 1507 1505 1503 1502 1501 1500 1500 1500 1500 1500 1500 1501 1501 1502 1503 1504 1505 1507 1509 1510 1512
1551 1551 1550 1549 1548 1546 1544 1542 1540 1538 1535 1533 1531 1529 1526 1524 1522 1520 1517 1515 1514 1512 1510 1508 1507 1505 1504 1503 1503 1503 1502 1502 1502 1503 1503 1504 1504 1505 1507 1508 1510 1511 1513
1550 1550 1549 1549 1548 1546 1545 1543 1541 1539 1537 1535 1533 1531 1528 1526 1524 1522 1520 1518 1517 1515 1513 1511 1510 1508 1507 1507 1506 1505 1505 1505 1505 1505 1506 1506 1507 1508 1509 1510 1511 1513 1515
1549 1549 1549 1548 1548 1547 1545 1544 1542 1540 1538 1536 1534 1532 1530 1529 1526 1524 1523 1521 1519 1518 1516 1515 1513 1512 1510 1510 1509 1509 1508 1507 1507 1507 1508 1509 1509 1511 1512 1513 1514 1515 1516
1548 1548 1548 1548 1547 1546 1545 1544 1542 1541 1539 1537 1536 1534 1532 1531 1529 1527 1525 1524 1522 1521 1520 1518 1517 1515 1514 1513 1512 1511 1511 1510 1510 1510 1510 1511 1512 1513 1514 1515 1516 1517 1518
1546 1547 1547 1547 1546 1546 1545 1544 1542 1541 1540 1538 1537 1536 1534 1533 1531 1530 1528 1526 1525 1524 1522 1521 1520 1518 1517 1516 1515 1514 1513 1513 1513 1513 1513 1514 1515 1516 1517 1517 1518 1519 1520
1545 1545 1546 1546 1546 1545 1545 1544 1543 1542 1541 1540 1538 1537 1536 1534 1533 1532 1530 1528 1527 1526 1525 1523 1522 1521 1520 1518 1517 1517 1516 1516 1516 1516 1516 1517 1517 1518 1519 1519 1520 1521 1522
1543 1544 1544 1545 1545 1544 1544 1543 1542 1541 1541 1540 1539 1538 1537 1536 1534 1533 1532 1530 1529 1527 1526 1525 1524 1523 1522 1521 1520 1519 1518 1518 1518 1518 1519 1519 1519 1520 1520 1521 1522 1523 1524
1541 1541 1542 1543 1543 1543 1542 1542 1541 1541 1541 1540 1540 1539 1538 1537 1535 1534 1533 1532 1531 1529 1528 1526 1525 1524 1523 1522 1521 1521 1520 1520 1520 1520 1521 1521 1521 1522 1522 1523 1524 1524 1525
1537 1539 1540 1541 1541 1541 1541 1540 1540 1540 1540 1540 1540 1539 1538 1537 1536 1535 1534 1533 1532 1531 1529 1528 1527 1526 1525 1524 1523 1522 1522 1522 1522 1522 1522 1522 1523 1523 1524 1524 1525 1526 1526